Skip Page Navigation
NASA JPL Caltech
NASA Logo - Jet Propulsion Laboratory + View the NASA Portal
+ Near-Earth Object (NEO) Program
Search JPL
JPL Home Earth Solar System Stars & Galaxies Technology
JPL Solar System Dynamics
BODIES ORBITS EPHEMERIDES TOOLS PHYSICAL DATA DISCOVERY FAQ SITE MAP
JPL Small-Body Database Browser
Search: [ help ]  
11174 Carandrews (1998 FR67)
Classification: Main-belt Asteroid          SPK-ID: 2011174
Ephemeris | Orbit Diagram | Orbital Elements | Physical Parameters | Discovery Circumstances | Close-Approach Data ]

[ show orbit diagram ]
Orbital Elements at Epoch 2456800.5 (2014-May-23.0) TDB
Reference: JPL 9 (heliocentric ecliptic J2000)
 Element Value Uncertainty (1-sigma)   Units 
e .09375547083437943 5.4076e-08  
a 2.211559718138603 1.4537e-08 AU
q 2.004213895486171 1.2307e-07 AU
i 3.062188084046793 5.686e-06 deg
node 86.92594876854868 0.00011432 deg
peri 179.1320236412644 0.0001213 deg
M 263.6695712417913 4.4852e-05 deg
tp 2457121.945555925712
(2015-Apr-09.44555593)
0.00015082 JED
period 1201.286048707587
3.29
1.1845e-05
3.243e-08
d
yr
n .2996788320211566 2.9548e-09 deg/d
Q 2.418905540791035 1.59e-08 AU
  Orbit Determination Parameters
   # obs. used (total)      947  
   data-arc span      13660 days (37.40 yr)  
   first obs. used      1976-10-22  
   last obs. used      2014-03-17  
   planetary ephem.      DE431  
   SB-pert. ephem.      SB431-BIG16  
   condition code      0  
   fit RMS      .51615  
   data source      ORB  
   producer      Otto Matic  
   solution date      2014-Apr-17 13:59:53  

Additional Information
 Earth MOID = .988003 AU 
 T_jup = 3.649 
[ show covariance matrix ]

Ephemeris | Orbit Diagram | Orbital Elements | Physical Parameters | Discovery Circumstances | Close-Approach Data ]

Physical Parameter Table
Parameter Symbol Value Units Sigma Reference Notes
absolute magnitude H 14.6 mag n/a MPO253443  

11174 Carandrews           Discovered 1998 Mar. 20 by the Lincoln Laboratory Near-Earth Asteroid Research Team at Socorro.
Carolyn Marie Andrews (b. 1984) is a finalist in the 2002 Intel International Science and Engineering Fair for her engineering project. She attends the Lake Brantley High School, Longwood, Florida, U.S.A.
NOTE: some special characters may not display properly (any characters within {} are an attempt to place the proper accent above a character)
Reference: 20020724/MPCPages.arcLast Updated: 2003-10-02

[ show close-approach data ]
Alternate Designations
 1998 FR67 = 1976 UQ12 = 1976 WL 
Ephemeris | Orbit Diagram | Orbital Elements | Physical Parameters | Discovery Circumstances | Close-Approach Data ]
ABOUT SSD CREDITS/AWARDS PRIVACY/COPYRIGHT GLOSSARY LINKS
FirstGov 2014-Apr-18 03:04 UT
(server date/time)  
NASA Home Page
Site Manager:   Donald K. Yeomans
Webmaster  Alan B. Chamberlin